GW4439 Weather Reports


Display with metric or nautical units.
time (UTC)temp
F
wind
direction
speed
MPH
gust
MPH
rain 1hr
in
rain 24hr
in
rain mn
in
humidity
%
barometer
mb
20260504000423 66 216 2.0 2.0 0.00 0.00 0.00 48 1016.1
20260503235918 66 228 2.0 2.0 0.00 0.00 0.00 47 1016.4
20260503235416 66 232 2.0 2.0 0.00 0.00 0.00 46 1016.4
20260503234913 67 192 2.0 2.0 0.00 0.00 0.00 46 1016.4
20260503234411 67 192 2.0 2.0 0.00 0.00 0.00 45 1016.5
20260503233908 68 232 3.0 3.0 0.00 0.00 0.00 44 1016.3
20260503233405 68 225 2.0 2.0 0.00 0.00 0.00 43 1016.4
20260503232901 68 219 3.0 3.0 0.00 0.00 0.00 43 1016.5
20260503232358 68 228 4.0 4.0 0.00 0.00 0.00 42 1016.8
20260503231856 68 236 3.0 3.0 0.00 0.00 0.00 43 1016.4
20260503231353 69 219 2.0 3.0 0.00 0.00 0.00 42 1016.4
20260503230849 68 229 2.0 2.0 0.00 0.00 0.00 42 1016.5
20260503230346 69 238 3.0 4.0 0.00 0.00 0.00 41 1016.6
20260503225844 68 235 5.0 6.0 0.00 0.00 0.00 41 1016.7
20260503225339 69 182 2.0 2.0 0.00 0.00 0.00 39 1016.7
20260503224836 68 254 1.0 1.0 0.00 0.00 0.00 40 1016.5
20260503224333 69 224 3.0 3.0 0.00 0.00 0.00 40 1016.4
20260503223831 69 239 4.0 6.0 0.00 0.00 0.00 39 1016.5
20260503223328 69 229 3.0 3.0 0.00 0.00 0.00 39 1016.3
20260503222824 69 220 6.0 7.0 0.00 0.00 0.00 39 1016.5
20260503222323 69 238 6.0 8.0 0.00 0.00 0.00 39 1016.4
20260503221821 70 205 4.0 4.0 0.00 0.00 0.00 38 1016.3
20260503221319 69 274 4.0 6.0 0.00 0.00 0.00 41 1016.5
20260503220814 70 246 0.0 0.0 0.00 0.00 0.00 39 1016.3
20260503220311 69 229 4.0 4.0 0.00 0.00 0.00 38 1016.4
20260503215803 69 312 4.0 4.0 0.00 0.00 0.00 39 1016.3
20260503215300 69 295 4.0 6.0 0.00 0.00 0.00 39 1016.3
20260503214758 69 208 4.0 4.0 0.00 0.00 0.00 40 1016.3
20260503214255 69 232 4.0 6.0 0.00 0.00 0.00 39 1016.4
20260503213752 69 289 2.0 3.0 0.00 0.00 0.00 40 1016.4
20260503213249 69 232 3.0 4.0 0.00 0.00 0.00 39 1016.4
20260503212745 69 208 7.0 9.0 0.00 0.00 0.00 40 1016.6
20260503212243 69 265 5.0 6.0 0.00 0.00 0.00 41 1016.6
20260503211741 69 267 3.0 3.0 0.00 0.00 0.00 41 1016.6
20260503211237 69 252 4.0 6.0 0.00 0.00 0.00 39 1016.7
20260503210732 69 243 4.0 4.0 0.00 0.00 0.00 41 1016.7
20260503210230 69 242 4.0 4.0 0.00 0.00 0.00 40 1016.5
20260503205725 69 252 3.0 3.0 0.00 0.00 0.00 41 1016.6
20260503205221 69 242 6.0 6.0 0.00 0.00 0.00 37 1016.7
20260503204719 69 244 2.0 2.0 0.00 0.00 0.00 39 1016.7
20260503204217 68 237 3.0 4.0 0.00 0.00 0.00 40 1016.8
20260503203713 68 255 2.0 3.0 0.00 0.00 0.00 41 1016.7
20260503203211 68 312 5.0 6.0 0.00 0.00 0.00 42 1017.0
20260503202708 68 277 5.0 6.0 0.00 0.00 0.00 42 1017.0
20260503202206 67 285 3.0 3.0 0.00 0.00 0.00 40 1017.2
20260503201704 67 273 6.0 7.0 0.00 0.00 0.00 42 1017.3
20260503201201 69 283 8.0 13.0 0.00 0.00 0.00 41 1017.2
20260503200657 67 247 0.0 0.0 0.00 0.00 0.00 41 1017.5
20260503200154 68 218 3.0 3.0 0.00 0.00 0.00 41 1017.5
20260503195650 68 209 5.0 6.0 0.00 0.00 0.00 42 1017.7
20260503195148 68 235 5.0 6.0 0.00 0.00 0.00 40 1017.7
20260503194644 68 288 4.0 4.0 0.00 0.00 0.00 42 1017.6
20260503194139 67 251 9.0 11.0 0.00 0.00 0.00 41 1017.8
20260503193636 68 281 6.0 7.0 0.00 0.00 0.00 43 1017.8
20260503193132 68 275 4.0 4.0 0.00 0.00 0.00 43 1018.0
20260503192622 67 252 3.0 3.0 0.00 0.00 0.00 42 1018.2
20260503192118 67 183 4.0 6.0 0.00 0.00 0.00 42 1018.4
20260503191615 67 221 7.0 9.0 0.00 0.00 0.00 41 1018.6
20260503191111 67 240 8.0 10.0 0.00 0.00 0.00 41 1018.5
20260503190609 67 227 5.0 6.0 0.00 0.00 0.00 41 1018.5
20260503190106 68 246 7.0 9.0 0.00 0.00 0.00 41 1018.5
20260503185603 67 259 3.0 4.0 0.00 0.00 0.00 41 1018.6
20260503185102 67 245 7.0 9.0 0.00 0.00 0.00 42 1018.7
20260503184557 65 216 5.0 7.0 0.00 0.00 0.00 44 1018.6
20260503184055 66 221 3.0 6.0 0.00 0.00 0.00 44 1018.9
20260503183551 66 201 3.0 4.0 0.00 0.00 0.00 42 1018.8
20260503183049 66 207 5.0 7.0 0.00 0.00 0.00 43 1018.8
20260503182547 66 251 7.0 8.0 0.00 0.00 0.00 42 1018.9
20260503182045 66 234 2.0 2.0 0.00 0.00 0.00 43 1019.0
20260503181541 66 221 6.0 7.0 0.00 0.00 0.00 43 1018.9
20260503181038 66 245 10.0 11.0 0.00 0.00 0.00 42 1019.0
20260503180535 65 244 6.0 8.0 0.00 0.00 0.00 44 1018.9
20260503180032 66 248 5.0 8.0 0.00 0.00 0.00 42 1019.0
20260503175524 66 224 5.0 6.0 0.00 0.00 0.00 41 1019.0
20260503175021 66 224 1.0 1.0 0.00 0.00 0.00 42 1019.0
20260503174519 65 114 3.0 3.0 0.00 0.00 0.00 43 1019.2
20260503174014 64 243 2.0 2.0 0.00 0.00 0.00 43 1019.1
20260503173510 65 276 5.0 6.0 0.00 0.00 0.00 43 1019.1
20260503173006 64 159 2.0 2.0 0.00 0.00 0.00 43 1019.1
20260503172504 64 285 4.0 4.0 0.00 0.00 0.00 46 1019.3
20260503172000 64 278 1.0 2.0 0.00 0.00 0.00 45 1019.4
20260503171456 66 305 2.0 3.0 0.00 0.00 0.00 42 1019.5
20260503170954 64 233 0.0 1.0 0.00 0.00 0.00 43 1019.7
20260503170450 65 60 4.0 4.0 0.00 0.00 0.00 45 1019.6
20260503150842 60 246 1.0 1.0 0.00 0.00 0.00 49 1020.4
20260503150338 60 252 0.0 0.0 0.00 0.00 0.00 52 1020.4
20260503140303 58 341 3.0 3.0 0.00 0.00 0.00 58 1020.0
20260503131232 55 253 1.0 1.0 0.00 0.00 0.00 66 1020.0
20260503130730 54 142 1.0 2.0 0.00 0.00 0.00 64 1020.1
20260503130227 54 40 5.0 7.0 0.00 0.00 0.00 65 1019.9
20260503120153 46 272 0.0 0.0 0.00 0.00 0.00 99 1019.6
20260503110620 40 265 0.0 0.0 0.00 0.00 0.00 99 1019.0
20260503110118 39 268 0.0 0.0 0.00 0.00 0.00 99 1019.0
20260503090508 42 267 0.0 0.0 0.00 0.00 0.00 99 1017.3
20260503081433 42 270 0.0 0.0 0.00 0.00 0.00 99 1017.2
20260503080931 43 270 0.0 0.0 0.00 0.00 0.00 99 1017.1
20260503080427 43 270 0.0 0.0 0.00 0.00 0.00 99 1016.9
20260503072904 44 271 0.0 0.0 0.00 0.00 0.00 99 1016.7
20260503072401 44 271 0.0 0.0 0.00 0.00 0.00 99 1016.6
20260503071858 44 272 0.0 0.0 0.00 0.00 0.00 99 1016.6
20260503071355 44 263 0.0 0.0 0.00 0.00 0.00 99 1016.4
20260503070850 44 261 0.0 0.0 0.00 0.00 0.00 99 1016.5
20260503070349 44 261 0.0 0.0 0.00 0.00 0.00 99 1016.3
20260503060308 47 256 0.0 0.0 0.00 0.00 0.00 98 1016.1
20260503054755 48 256 0.0 0.0 0.00 0.00 0.00 98 1016.3
20260503054251 48 256 0.0 0.0 0.00 0.00 0.00 98 1016.4
20260503053749 48 256 0.0 0.0 0.00 0.00 0.00 98 1016.3
20260503053243 48 256 0.0 0.0 0.00 0.00 0.00 98 1016.4
20260503052738 48 256 0.0 0.0 0.00 0.00 0.00 98 1016.5
20260503052235 48 256 0.0 0.0 0.00 0.00 0.00 98 1016.4
20260503051730 48 257 0.0 0.0 0.00 0.00 0.00 98 1016.4
20260503051228 48 271 0.0 0.0 0.00 0.00 0.00 97 1016.4
20260503050724 48 257 0.0 0.0 0.00 0.00 0.00 97 1016.5
20260503050220 48 257 0.0 0.0 0.00 0.00 0.00 97 1016.5
20260503045718 49 256 0.0 0.0 0.00 0.00 0.00 97 1016.5
20260503045216 49 256 0.0 0.0 0.00 0.00 0.00 97 1016.1
20260503044712 49 256 0.0 0.0 0.00 0.00 0.00 97 1016.2
20260503044210 49 257 0.0 0.0 0.00 0.00 0.00 97 1016.3
20260503043706 50 257 0.0 0.0 0.00 0.00 0.00 97 1016.2
20260503043204 50 257 0.0 0.0 0.00 0.00 0.00 96 1016.0
20260503042659 50 248 0.0 0.0 0.00 0.00 0.00 96 1016.1
20260503042156 50 248 0.0 0.0 0.00 0.00 0.00 96 1016.0
20260503041652 51 248 0.0 0.0 0.00 0.00 0.00 95 1016.1
20260503041150 51 247 0.0 0.0 0.00 0.00 0.00 95 1015.9
20260503040647 51 247 0.0 0.0 0.00 0.00 0.00 95 1016.0
20260503040140 52 247 0.0 0.0 0.00 0.00 0.00 95 1015.9
20260503035636 52 246 0.0 0.0 0.00 0.01 0.01 94 1015.7
20260503035133 52 230 1.0 1.0 0.00 0.01 0.01 94 1015.8
20260503034625 52 234 1.0 1.0 0.00 0.01 0.01 94 1015.6
20260503034122 53 240 1.0 2.0 0.00 0.01 0.01 93 1015.7
20260503033619 53 230 2.0 2.0 0.00 0.01 0.01 93 1015.6
20260503033116 53 222 1.0 1.0 0.00 0.01 0.01 93 1015.7
20260503032614 53 238 0.0 0.0 0.00 0.01 0.01 93 1015.5
20260503032112 53 244 0.0 0.0 0.00 0.01 0.01 92 1015.7
20260503031610 53 234 0.0 0.0 0.00 0.01 0.01 92 1015.8
20260503031102 54 229 0.0 0.0 0.00 0.01 0.01 92 1015.5
20260503030558 54 232 0.0 0.0 0.00 0.01 0.01 92 1015.6
20260503030055 54 236 1.0 1.0 0.00 0.01 0.01 91 1015.6
20260503025551 54 236 0.0 0.0 0.00 0.01 0.01 91 1015.6
20260503025049 54 231 2.0 2.0 0.00 0.01 0.01 92 1015.6
20260503024545 54 224 2.0 2.0 0.00 0.01 0.01 92 1015.5
20260503024043 54 231 2.0 2.0 0.00 0.01 0.01 93 1015.3
20260503023539 54 252 2.0 3.0 0.00 0.01 0.01 92 1015.2
20260503023037 54 257 0.0 0.0 0.00 0.01 0.01 92 1015.0
20260503022532 55 257 0.0 0.0 0.00 0.01 0.01 92 1015.0
20260503022027 55 249 2.0 2.0 0.00 0.01 0.01 92 1015.0
20260503021524 55 230 4.0 4.0 0.00 0.01 0.01 91 1014.9
20260503021021 55 258 0.0 0.0 0.00 0.01 0.01 89 1015.0
20260503020518 56 306 0.0 0.0 0.00 0.01 0.01 89 1014.9
20260503020015 56 218 0.0 0.0 0.00 0.01 0.01 89 1014.6
20260503015512 56 245 1.0 1.0 0.00 0.01 0.01 88 1014.6
20260503015009 56 232 0.0 0.0 0.00 0.01 0.01 89 1014.3
20260503014505 56 253 0.0 0.0 0.00 0.01 0.01 89 1014.4
20260503014003 55 236 1.0 2.0 0.00 0.01 0.01 90 1014.3
20260503013500 55 262 0.0 0.0 0.00 0.01 0.01 90 1014.2
20260503012957 56 263 2.0 2.0 0.00 0.01 0.01 90 1014.1
20260503012455 56 261 0.0 0.0 0.00 0.01 0.01 89 1013.9
20260503011950 56 261 0.0 0.0 0.00 0.01 0.01 88 1013.8
20260503011448 57 282 1.0 1.0 0.00 0.01 0.01 87 1013.7
20260503010945 57 228 1.0 1.0 0.00 0.01 0.01 86 1013.6
20260503010441 57 240 1.0 2.0 0.00 0.01 0.01 85 1013.7
20260503005939 58 227 2.0 3.0 0.00 0.01 0.01 85 1013.5
20260503005436 58 235 2.0 3.0 0.00 0.01 0.01 84 1013.4
20260503004933 58 224 1.0 1.0 0.00 0.01 0.01 85 1013.4
20260503004429 58 236 0.0 0.0 0.00 0.01 0.01 84 1013.0
20260503003927 58 212 3.0 3.0 0.00 0.01 0.01 86 1013.1
20260503003424 58 218 4.0 4.0 0.00 0.01 0.01 87 1013.1
20260503002921 57 253 2.0 2.0 0.00 0.01 0.01 87 1013.3
20260503002418 59 265 0.0 0.0 0.00 0.01 0.01 85 1012.9
20260503001914 58 254 0.0 0.0 0.00 0.01 0.01 84 1012.9
20260503001411 58 249 0.0 0.0 0.00 0.01 0.01 79 1012.9
20260503000909 58 225 0.0 0.0 0.00 0.01 0.01 80 1012.8